TimeEST,TemperatureF,Dew PointF,Humidity,Sea Level PressureIn,VisibilityMPH,Wind Direction,Wind SpeedMPH,Gust SpeedMPH,PrecipitationIn,Events,Conditions,WindDirDegrees,DateUTC
12:21 AM,37.0,35.1,93,30.10,4.0,North,12.7,23.0,0.05,Rain,Rain,360,2013-12-07 05:21:00
12:32 AM,37.0,36.0,96,30.10,5.0,North,12.7,-,0.06,Rain,Light Rain,350,2013-12-07 05:32:00
12:56 AM,37.0,35.1,93,30.11,6.0,North,10.4,23.0,0.09,Rain,Light Rain,360,2013-12-07 05:56:00
1:54 AM,37.4,35.6,93,30.09,9.0,North,8.1,-,0.10,Rain,Light Rain,350,2013-12-07 06:54:00
1:56 AM,37.0,36.0,96,30.09,9.0,North,8.1,-,0.10,Rain,Light Rain,360,2013-12-07 06:56:00
2:56 AM,37.0,35.1,93,30.14,9.0,NNW,9.2,-,0.01,Rain,Light Rain,340,2013-12-07 07:56:00
3:21 AM,37.0,35.1,93,30.16,3.0,North,12.7,21.9,0.02,Rain,Light Rain,350,2013-12-07 08:21:00
3:56 AM,36.0,34.0,93,30.14,4.0,North,10.4,23.0,0.03,Snow,Light Snow,350,2013-12-07 08:56:00
4:56 AM,36.0,34.0,93,30.17,10.0,North,8.1,-,0.00,,Overcast,350,2013-12-07 09:56:00
5:13 AM,36.0,34.0,93,30.18,5.0,North,9.2,-,N/A,,Overcast,350,2013-12-07 10:13:00
5:29 AM,36.0,34.0,93,30.18,10.0,North,9.2,-,N/A,,Overcast,360,2013-12-07 10:29:00
5:56 AM,36.0,34.0,93,30.19,10.0,North,9.2,-,N/A,,Overcast,350,2013-12-07 10:56:00
6:56 AM,36.0,33.1,89,30.22,10.0,NNW,9.2,-,N/A,,Overcast,340,2013-12-07 11:56:00
7:29 AM,36.0,33.1,89,30.23,10.0,NNW,5.8,-,N/A,,Overcast,330,2013-12-07 12:29:00
7:56 AM,36.0,32.0,86,30.25,10.0,NNW,8.1,-,N/A,,Overcast,340,2013-12-07 12:56:00
8:56 AM,37.9,30.9,76,30.27,10.0,NNW,11.5,-,N/A,,Overcast,330,2013-12-07 13:56:00
9:56 AM,39.9,30.0,68,30.28,10.0,NNW,17.3,23.0,N/A,,Clear,330,2013-12-07 14:56:00
10:46 AM,39.9,28.9,65,30.29,10.0,North,15.0,24.2,N/A,,Mostly Cloudy,350,2013-12-07 15:46:00
10:56 AM,39.9,28.9,65,30.28,10.0,NW,16.1,26.5,N/A,,Mostly Cloudy,320,2013-12-07 15:56:00
11:56 AM,39.9,28.0,63,30.28,10.0,NNW,18.4,-,N/A,,Mostly Cloudy,330,2013-12-07 16:56:00
12:49 PM,37.9,27.0,65,30.29,10.0,NNW,11.5,-,N/A,,Overcast,330,2013-12-07 17:49:00
12:56 PM,39.0,27.0,62,30.29,10.0,NW,13.8,-,N/A,,Overcast,320,2013-12-07 17:56:00
1:56 PM,39.0,28.0,65,30.30,10.0,NNW,9.2,21.9,N/A,,Overcast,330,2013-12-07 18:56:00
2:56 PM,39.0,27.0,62,30.31,10.0,NW,12.7,-,N/A,,Mostly Cloudy,320,2013-12-07 19:56:00
3:56 PM,37.9,26.1,62,30.34,10.0,NNW,8.1,-,N/A,,Partly Cloudy,340,2013-12-07 20:56:00
4:56 PM,36.0,25.0,64,30.37,10.0,NNW,5.8,-,N/A,,Clear,340,2013-12-07 21:56:00
5:56 PM,33.1,23.0,66,30.39,10.0,NNW,4.6,-,N/A,,Clear,330,2013-12-07 22:56:00
6:56 PM,30.9,23.0,72,30.42,10.0,Calm,Calm,-,N/A,,Clear,0,2013-12-07 23:56:00
7:56 PM,30.9,24.1,76,30.45,10.0,Calm,Calm,-,N/A,,Clear,0,2013-12-08 00:56:00
8:56 PM,33.1,21.0,61,30.47,10.0,NNW,5.8,-,N/A,,Clear,340,2013-12-08 01:56:00
9:56 PM,30.9,19.9,64,30.48,10.0,NNW,5.8,-,N/A,,Clear,340,2013-12-08 02:56:00
10:56 PM,30.9,18.0,59,30.50,10.0,NNW,6.9,-,N/A,,Clear,330,2013-12-08 03:56:00
11:56 PM,30.0,18.0,61,30.50,10.0,NNW,8.1,-,N/A,,Clear,340,2013-12-08 04:56:00